Denver, CO

11:03 AM MDT on May 24, 2017 (GMT -0600)
Front Range

Weather History for KFTG - December, 2011

Change the Weather History Date:

Thursday, December 1, 2011

  Actual Average (KBKF) Record (KBKF)
Temperature  
Mean Temperature 21 °F -  
Max Temperature 32 °F 45 °F 71 °F (1998)
Min Temperature 8 °F 22 °F 10 °F (2006)
Degree Days  
Heating Degree Days 44    
Moisture  
Dew Point 21 °F    
Average Humidity 92    
Maximum Humidity 100    
Minimum Humidity 80    
Precipitation  
Precipitation 0.00 in - - ()
Sea Level Pressure  
Sea Level Pressure 30.36 in    
Wind  
Wind Speed 11 mph (North)    
Max Wind Speed 22 mph    
Max Gust Speed 30 mph    
Visibility 5 miles    
Events Snow    
Averages and records for this station are not official NWS values.
T = Trace of Precipitation, MM = Missing Value Source: NWS Daily Summary

Daily Weather History Graph

Daily Weather History Graph

Search for Another Location

Airport or City:

Trip Planner

Search our weather history database for the weather conditions in past years. The results will help you decide how hot, cold, wet, or windy it might be!

Date:

Astronomy

Dec. 01, 2011 Rise Set
Actual Time 7:00 AM MST 4:34 PM MST
Civil Twilight 6:30 AM MST 5:04 PM MST
Nautical Twilight 5:56 AM MST 5:37 PM MST
Astronomical Twilight 5:24 AM MST 6:10 PM MST
Moon 11:47 AM MST (12/1) 11:34 PM MST (12/1)
Length of Visible Light 10h 33m
Length of Day
9h 34m
Waxing Crescent, 44% of the Moon is Illuminated
Dec 1
Waxing Crescent
Dec 2
First Quarter
Dec 10
Full
Dec 17
Last Quarter
Dec 24
New

Hourly Weather History & Observations

Time (MST) Temp. Windchill Dew Point Humidity Pressure Visibility Wind Dir Wind Speed Gust Speed Precip Events Conditions
12:10 AM 30.2 °F 21.3 °F 26.6 °F 86% 30.08 in 10.0 mi North 10.4 mph - N/A   Mostly Cloudy
12:30 AM 32.0 °F 24.8 °F 26.6 °F 80% 30.10 in 10.0 mi North 8.1 mph - N/A   Overcast
12:49 AM 32.0 °F 24.8 °F 26.6 °F 80% 30.10 in 10.0 mi NNW 8.1 mph - N/A   Overcast
1:09 AM 32.0 °F 24.2 °F 28.4 °F 87% 30.12 in 10.0 mi North 9.2 mph - N/A   Overcast
1:30 AM 32.0 °F 24.2 °F 26.6 °F 80% 30.12 in 10.0 mi North 9.2 mph - N/A   Overcast
1:50 AM 32.0 °F 24.2 °F 26.6 °F 80% 30.13 in 10.0 mi North 9.2 mph - N/A   Overcast
2:10 AM 32.0 °F 23.6 °F 28.4 °F 87% 30.14 in 10.0 mi North 10.4 mph - N/A   Overcast
2:30 AM 32.0 °F 23.6 °F 28.4 °F 87% 30.16 in 10.0 mi North 10.4 mph - N/A Snow Light Snow
2:50 AM 32.0 °F 24.2 °F 30.2 °F 93% 30.17 in 7.0 mi North 9.2 mph - N/A Snow Light Snow
3:30 AM 32.0 °F 20.5 °F 30.2 °F 93% 30.19 in 1.5 mi North 18.4 mph 21.9 mph N/A Snow Light Snow
3:49 AM 30.2 °F 18.5 °F 30.2 °F 100% 30.20 in 1.5 mi North 17.3 mph - N/A Snow Light Snow
4:10 AM 30.2 °F 19.3 °F 28.4 °F 93% 30.21 in 1.2 mi North 15.0 mph 23.0 mph N/A Snow Light Snow
4:30 AM 28.4 °F 15.4 °F 28.4 °F 100% 30.22 in 1.2 mi North 19.6 mph 26.5 mph N/A Snow Light Snow
4:51 AM 28.4 °F 17.5 °F 28.4 °F 100% 30.23 in 2.0 mi North 13.8 mph 19.6 mph N/A Snow Light Snow
5:11 AM 28.4 °F 16.2 °F 28.4 °F 100% 30.25 in 1.5 mi North 17.3 mph 20.7 mph N/A Snow Light Snow
5:31 AM 28.4 °F 18.5 °F 28.4 °F 100% 30.27 in 1.5 mi North 11.5 mph - N/A Snow Light Snow
5:51 AM 28.4 °F 18.0 °F 28.4 °F 100% 30.27 in 1.5 mi North 12.7 mph - N/A Snow Light Snow
6:11 AM 28.4 °F 17.0 °F 26.6 °F 93% 30.28 in 1.8 mi North 15.0 mph - N/A Snow Light Snow
6:30 AM 28.4 °F 18.0 °F 26.6 °F 93% 30.29 in 1.5 mi North 12.7 mph - N/A Snow Light Snow
6:51 AM 28.4 °F 17.5 °F 28.4 °F 100% 30.31 in - North 13.8 mph - N/A   Overcast
7:10 AM 28.4 °F 19.1 °F 26.6 °F 93% 30.31 in - NNE 10.4 mph - N/A   Overcast
7:30 AM 28.4 °F 18.0 °F 28.4 °F 100% 30.33 in - NNE 12.7 mph - N/A   Overcast
7:51 AM 26.6 °F 13.1 °F 26.6 °F 100% 30.34 in - NNE 19.6 mph - N/A   Overcast
8:11 AM 26.6 °F 12.4 °F 24.8 °F 93% 30.37 in - NNE 21.9 mph 25.3 mph N/A   Overcast
8:31 AM 26.6 °F 13.8 °F 24.8 °F 93% 30.38 in - NNE 17.3 mph 21.9 mph N/A   Overcast
8:51 AM 24.8 °F 11.1 °F 23.0 °F 93% 30.40 in - NNE 18.4 mph - N/A   Overcast
9:11 AM 24.8 °F 10.0 °F 23.0 °F 93% 30.42 in - NNE 21.9 mph 29.9 mph N/A   Overcast
9:31 AM 24.8 °F 11.5 °F 23.0 °F 93% 30.43 in - NNE 17.3 mph - N/A   Overcast
9:51 AM 24.8 °F 11.5 °F 23.0 °F 93% 30.45 in - NNE 17.3 mph 21.9 mph N/A   Overcast
10:11 AM 23.0 °F 8.7 °F 21.2 °F 93% 30.46 in - North 18.4 mph 26.5 mph N/A   Unknown
10:50 AM 21.2 °F 5.6 °F 19.4 °F 93% 30.48 in 1.8 mi North 20.7 mph - N/A Snow Light Snow
11:11 AM 21.2 °F 6.4 °F 19.4 °F 93% 30.47 in 4.0 mi North 18.4 mph - N/A Snow Light Snow
11:31 AM 21.2 °F 6.4 °F 17.6 °F 86% 30.47 in 3.0 mi North 18.4 mph - N/A Snow Light Snow
11:51 AM 21.2 °F 7.3 °F 17.6 °F 86% 30.47 in 2.0 mi North 16.1 mph - N/A Snow Light Snow
12:11 PM 21.2 °F 8.3 °F 17.6 °F 86% 30.47 in 4.0 mi North 13.8 mph - N/A Snow Light Snow
12:31 PM 21.2 °F 8.3 °F 17.6 °F 86% 30.47 in 5.0 mi North 13.8 mph - N/A Snow Light Snow
12:51 PM 19.4 °F 6.0 °F 17.6 °F 93% 30.46 in 2.0 mi North 13.8 mph - N/A Snow Light Snow
1:11 PM 19.4 °F 8.6 °F 17.6 °F 93% 30.46 in 2.5 mi North 9.2 mph - N/A Snow Light Snow
1:31 PM 19.4 °F 8.6 °F 17.6 °F 93% 30.46 in 4.0 mi North 9.2 mph - N/A Snow Light Snow
1:51 PM 21.2 °F 11.7 °F 17.6 °F 86% 30.46 in 5.0 mi North 8.1 mph - N/A Snow Light Snow
2:11 PM 19.4 °F 8.6 °F 17.6 °F 93% 30.46 in 7.0 mi North 9.2 mph - N/A Snow Light Snow
2:31 PM 19.4 °F 8.6 °F 17.6 °F 93% 30.45 in 7.0 mi North 9.2 mph - N/A Snow Light Snow
2:50 PM 19.4 °F 7.9 °F 15.8 °F 86% 30.45 in 3.0 mi North 10.4 mph - N/A Snow Light Snow
2:51 PM 19.4 °F 7.2 °F 17.6 °F 93% 30.45 in 2.0 mi North 11.5 mph - N/A Snow Light Snow
2:55 PM 19.4 °F 9.5 °F 15.8 °F 86% 30.46 in 2.5 mi WSW 8.1 mph - N/A Snow Light Snow
3:11 PM 19.4 °F 7.9 °F 17.6 °F 93% 30.45 in 3.0 mi North 10.4 mph - N/A Snow Light Snow
3:31 PM 19.4 °F 10.4 °F 17.6 °F 93% 30.45 in 4.0 mi North 6.9 mph - N/A Snow Light Snow
3:50 PM 19.4 °F 10.4 °F 17.6 °F 93% 30.45 in 7.0 mi North 6.9 mph - N/A Snow Light Snow
4:10 PM 17.6 °F 10.7 °F 15.8 °F 93% 30.44 in 7.0 mi NNE 4.6 mph - N/A Snow Light Snow
4:31 PM 17.6 °F - 15.8 °F 93% 30.45 in 1.2 mi Calm Calm - N/A Snow Light Snow
4:51 PM 17.6 °F - 15.8 °F 93% 30.45 in 1.0 mi Calm Calm - N/A Snow Light Snow
5:11 PM 17.6 °F - 15.8 °F 93% 30.45 in 7.0 mi Calm Calm - N/A Snow Light Snow
5:31 PM 17.6 °F - 14.0 °F 86% 30.45 in 10.0 mi Calm Calm - N/A Snow Light Snow
5:51 PM 15.8 °F - 14.0 °F 93% 30.45 in 10.0 mi Calm Calm - N/A   Overcast
5:55 PM 12.2 °F - 10.4 °F 92% 30.45 in 7.0 mi Calm Calm - N/A   Overcast
6:11 PM 12.2 °F - 10.4 °F 92% 30.45 in 10.0 mi Calm Calm - N/A   Overcast
6:31 PM 12.2 °F 6.1 °F 10.4 °F 92% 30.44 in 3.0 mi South 3.5 mph - N/A   Scattered Clouds
6:51 PM 10.4 °F 2.2 °F 8.6 °F 92% 30.44 in 10.0 mi South 4.6 mph - N/A   Scattered Clouds
7:11 PM 12.2 °F 4.3 °F 10.4 °F 92% 30.43 in 10.0 mi South 4.6 mph - N/A   Mostly Cloudy
7:31 PM 12.2 °F 6.1 °F 10.4 °F 92% 30.42 in 10.0 mi South 3.5 mph - N/A   Mostly Cloudy
7:51 PM 12.2 °F 2.9 °F 10.4 °F 92% 30.41 in 10.0 mi South 5.8 mph - N/A   Mostly Cloudy
8:10 PM 8.6 °F -1.3 °F 6.8 °F 92% 30.40 in 10.0 mi SSE 5.8 mph - N/A   Clear
8:31 PM 5.0 °F -9.1 °F 3.2 °F 92% 30.38 in 10.0 mi SSE 9.2 mph - N/A   Clear
8:50 PM 8.6 °F -2.6 °F 5.0 °F 85% 30.37 in 10.0 mi South 6.9 mph - N/A   Clear
9:29 PM 6.8 °F -2.0 °F 5.0 °F 92% 30.35 in 10.0 mi SSE 4.6 mph - N/A   Clear
10:10 PM 8.6 °F 0.1 °F 5.0 °F 85% 30.32 in 10.0 mi ESE 4.6 mph - N/A   Clear
10:30 PM 5.0 °F -4.1 °F 3.2 °F 92% 30.31 in 10.0 mi ENE 4.6 mph - N/A   Clear
10:50 PM 8.6 °F - 6.8 °F 92% 30.29 in 10.0 mi Calm Calm - N/A   Clear
11:10 PM 12.2 °F 2.9 °F 10.4 °F 92% 30.27 in 10.0 mi WSW 5.8 mph - N/A   Clear
11:30 PM 14.0 °F 3.9 °F 14.0 °F 100% 30.26 in 10.0 mi SW 6.9 mph - N/A   Clear